Time,TemperatureF,DewpointF,PressureIn,WindDirection,WindDirectionDegrees,WindSpeedMPH,WindSpeedGustMPH,Humidity,HourlyPrecipIn,Conditions,Clouds,dailyrainin,SoftwareType,DateUTC
2013-07-16 00:00:00,75.3,73.1,30.11,SW,225,0.0,0.0,93,0.00,,CLR,0.01,VWS V14.01,2013-07-16 04:00:00,
2013-07-16 00:01:00,75.3,73.1,30.11,SW,225,0.0,0.0,93,0.00,,CLR,0.00,VWS V14.01,2013-07-16 04:01:00,
2013-07-16 00:02:00,75.3,73.1,30.11,SW,225,0.0,0.0,93,0.00,,CLR,0.00,VWS V14.01,2013-07-16 04:02:00,
2013-07-16 00:04:00,75.3,73.1,30.11,SW,226,0.0,0.0,93,0.00,,CLR,0.00,VWS V14.01,2013-07-16 04:04:00,
2013-07-16 00:08:00,75.3,73.5,30.11,SW,225,0.0,0.0,94,0.00,,CLR,0.00,VWS V14.01,2013-07-16 04:08:00,
2013-07-16 00:13:00,75.1,73.3,30.11,SW,225,0.0,0.0,94,0.00,,CLR,0.00,VWS V14.01,2013-07-16 04:13:00,
2013-07-16 00:18:00,75.0,73.2,30.11,SW,225,0.0,0.0,94,0.00,,CLR,0.00,VWS V14.01,2013-07-16 04:18:00,
2013-07-16 00:23:00,74.9,73.1,30.10,SW,225,0.0,0.0,94,0.00,,CLR,0.00,VWS V14.01,2013-07-16 04:23:00,
2013-07-16 00:28:00,74.9,73.1,30.10,SW,225,0.0,0.0,94,0.00,,CLR,0.00,VWS V14.01,2013-07-16 04:28:00,
2013-07-16 00:33:00,74.8,73.0,30.10,SW,225,0.0,0.0,94,0.00,,CLR,0.00,VWS V14.01,2013-07-16 04:33:00,
2013-07-16 00:38:00,74.8,73.3,30.10,SW,225,0.0,0.0,95,0.00,,CLR,0.00,VWS V14.01,2013-07-16 04:38:00,
2013-07-16 00:44:00,74.7,73.2,30.10,SW,225,0.0,0.0,95,0.00,,CLR,0.00,VWS V14.01,2013-07-16 04:44:00,
2013-07-16 00:49:00,74.6,73.1,30.10,SW,225,0.0,0.0,95,0.00,,CLR,0.00,VWS V14.01,2013-07-16 04:49:00,
2013-07-16 00:54:00,74.6,73.1,30.11,SW,225,0.0,0.0,95,0.00,,CLR,0.00,VWS V14.01,2013-07-16 04:54:00,
2013-07-16 00:59:00,74.5,73.0,30.11,SW,225,0.0,0.0,95,0.00,,CLR,0.00,VWS V14.01,2013-07-16 04:59:00,
2013-07-16 01:04:00,74.5,73.0,30.11,SW,225,0.0,0.0,95,0.00,,CLR,0.00,VWS V14.01,2013-07-16 05:04:00,
2013-07-16 01:09:00,74.4,72.9,30.11,SW,225,0.0,0.0,95,0.00,,CLR,0.00,VWS V14.01,2013-07-16 05:09:00,
2013-07-16 01:14:00,74.4,72.9,30.11,SW,225,0.0,0.0,95,0.00,,CLR,0.00,VWS V14.01,2013-07-16 05:14:00,
2013-07-16 01:19:00,74.4,72.9,30.10,SW,225,0.0,0.0,95,0.00,,CLR,0.00,VWS V14.01,2013-07-16 05:19:00,
2013-07-16 01:24:00,74.4,73.2,30.10,SW,225,0.0,0.0,96,0.00,,CLR,0.00,VWS V14.01,2013-07-16 05:24:00,
2013-07-16 01:29:00,74.4,73.2,30.10,SW,225,0.0,0.0,96,0.00,,CLR,0.00,VWS V14.01,2013-07-16 05:29:00,
2013-07-16 01:35:00,74.4,73.2,30.10,SW,225,0.0,0.0,96,0.00,,CLR,0.00,VWS V14.01,2013-07-16 05:35:00,
2013-07-16 01:40:00,74.4,73.2,30.10,SW,225,0.0,0.0,96,0.00,,CLR,0.00,VWS V14.01,2013-07-16 05:40:00,
2013-07-16 01:45:00,74.4,73.2,30.10,SW,225,0.0,0.0,96,0.00,,CLR,0.00,VWS V14.01,2013-07-16 05:45:00,
2013-07-16 01:50:00,74.4,73.2,30.10,SW,225,0.0,0.0,96,0.00,,CLR,0.00,VWS V14.01,2013-07-16 05:50:00,
2013-07-16 01:55:00,74.4,73.2,30.10,SW,225,0.0,0.0,96,0.00,,CLR,0.00,VWS V14.01,2013-07-16 05:55:00,
2013-07-16 02:00:00,74.4,73.2,30.09,SW,224,0.0,0.0,96,0.00,,CLR,0.00,VWS V14.01,2013-07-16 06:00:00,
2013-07-16 02:05:00,74.3,73.1,30.09,SW,225,0.0,0.0,96,0.00,,CLR,0.00,VWS V14.01,2013-07-16 06:05:00,
2013-07-16 02:10:00,74.3,73.1,30.10,SW,225,0.0,0.0,96,0.00,,CLR,0.00,VWS V14.01,2013-07-16 06:10:00,
2013-07-16 02:15:00,74.2,73.0,30.10,SW,225,0.0,0.0,96,0.00,,CLR,0.00,VWS V14.01,2013-07-16 06:15:00,
2013-07-16 02:21:00,74.2,73.0,30.10,SW,225,0.0,0.0,96,0.00,,CLR,0.00,VWS V14.01,2013-07-16 06:21:00,
2013-07-16 02:26:00,74.2,73.0,30.10,SW,226,0.0,0.0,96,0.00,,CLR,0.00,VWS V14.01,2013-07-16 06:26:00,
2013-07-16 02:31:00,74.2,73.0,30.10,SW,225,0.0,0.0,96,0.00,,CLR,0.00,VWS V14.01,2013-07-16 06:31:00,
2013-07-16 02:36:00,74.0,72.8,30.10,SW,226,0.0,0.0,96,0.00,,CLR,0.00,VWS V14.01,2013-07-16 06:36:00,
2013-07-16 02:41:00,74.0,72.8,30.09,SW,225,0.0,0.0,96,0.00,,CLR,0.00,VWS V14.01,2013-07-16 06:41:00,
2013-07-16 02:46:00,73.9,72.7,30.09,SW,225,0.0,0.0,96,0.00,,CLR,0.00,VWS V14.01,2013-07-16 06:46:00,
2013-07-16 02:51:00,73.7,72.5,30.09,SW,225,0.0,0.0,96,0.00,,CLR,0.00,VWS V14.01,2013-07-16 06:51:00,
2013-07-16 02:56:00,73.7,72.5,30.09,SW,225,0.0,0.0,96,0.00,,CLR,0.00,VWS V14.01,2013-07-16 06:56:00,
2013-07-16 03:02:00,73.6,72.4,30.09,SW,226,0.0,0.0,96,0.00,,CLR,0.00,VWS V14.01,2013-07-16 07:02:00,
2013-07-16 03:07:00,73.6,72.4,30.09,SW,225,0.0,0.0,96,0.00,,CLR,0.00,VWS V14.01,2013-07-16 07:07:00,
2013-07-16 03:12:00,73.6,72.4,30.09,SW,225,0.0,0.0,96,0.00,,CLR,0.00,VWS V14.01,2013-07-16 07:12:00,
2013-07-16 03:17:00,73.5,72.3,30.09,SW,225,0.0,0.0,96,0.00,,CLR,0.00,VWS V14.01,2013-07-16 07:17:00,
2013-07-16 03:22:00,73.4,72.2,30.09,SW,225,0.0,0.0,96,0.00,,CLR,0.00,VWS V14.01,2013-07-16 07:22:00,
2013-07-16 03:27:00,73.3,72.1,30.09,SW,225,0.0,0.0,96,0.00,,CLR,0.00,VWS V14.01,2013-07-16 07:27:00,
2013-07-16 03:32:00,73.3,72.4,30.09,SW,225,0.0,0.0,97,0.00,,CLR,0.00,VWS V14.01,2013-07-16 07:32:00,
2013-07-16 03:37:00,73.3,72.4,30.09,SW,225,0.0,0.0,97,0.00,,CLR,0.00,VWS V14.01,2013-07-16 07:37:00,
2013-07-16 03:42:00,73.3,72.4,30.09,SW,225,0.0,0.0,97,0.00,,CLR,0.00,VWS V14.01,2013-07-16 07:42:00,
2013-07-16 03:47:00,73.3,72.4,30.09,SW,225,0.0,0.0,97,0.00,,CLR,0.00,VWS V14.01,2013-07-16 07:47:00,
2013-07-16 03:53:00,73.3,72.4,30.09,SW,225,0.0,0.0,97,0.00,,CLR,0.00,VWS V14.01,2013-07-16 07:53:00,
2013-07-16 03:58:00,73.4,72.5,30.09,SW,225,0.0,0.0,97,0.00,,CLR,0.00,VWS V14.01,2013-07-16 07:58:00,
2013-07-16 04:03:00,73.5,72.6,30.09,SW,225,0.0,0.0,97,0.00,,CLR,0.00,VWS V14.01,2013-07-16 08:03:00,
2013-07-16 04:08:00,73.5,72.6,30.09,SW,225,0.0,0.0,97,0.00,,CLR,0.00,VWS V14.01,2013-07-16 08:08:00,
2013-07-16 04:13:00,73.5,72.6,30.09,SW,225,0.0,0.0,97,0.00,,CLR,0.00,VWS V14.01,2013-07-16 08:13:00,
2013-07-16 04:18:00,73.4,72.5,30.09,SW,225,0.0,0.0,97,0.00,,CLR,0.00,VWS V14.01,2013-07-16 08:18:00,
2013-07-16 04:23:00,73.4,72.5,30.09,SW,225,0.0,0.0,97,0.00,,CLR,0.00,VWS V14.01,2013-07-16 08:23:00,
2013-07-16 04:28:00,73.4,72.5,30.09,SW,225,0.0,0.0,97,0.00,,CLR,0.00,VWS V14.01,2013-07-16 08:28:00,
2013-07-16 04:33:00,73.5,72.6,30.09,SW,225,0.0,0.0,97,0.00,,CLR,0.00,VWS V14.01,2013-07-16 08:33:00,
2013-07-16 04:38:00,73.4,72.5,30.09,SW,225,0.0,0.0,97,0.00,,CLR,0.00,VWS V14.01,2013-07-16 08:38:00,
2013-07-16 04:44:00,73.3,72.4,30.09,SW,225,0.0,0.0,97,0.00,,CLR,0.00,VWS V14.01,2013-07-16 08:44:00,
2013-07-16 04:49:00,73.4,72.5,30.09,SW,225,0.0,0.0,97,0.00,,CLR,0.00,VWS V14.01,2013-07-16 08:49:00,
2013-07-16 04:54:00,73.5,72.6,30.09,SW,225,0.0,0.0,97,0.00,,CLR,0.00,VWS V14.01,2013-07-16 08:54:00,
2013-07-16 04:59:00,73.5,72.6,30.09,SW,225,0.0,0.0,97,0.00,,CLR,0.00,VWS V14.01,2013-07-16 08:59:00,
2013-07-16 05:04:00,73.5,72.6,30.09,SW,225,0.0,0.0,97,0.00,,CLR,0.00,VWS V14.01,2013-07-16 09:04:00,
2013-07-16 05:09:00,73.6,72.7,30.09,SW,225,0.0,0.0,97,0.00,,CLR,0.00,VWS V14.01,2013-07-16 09:09:00,
2013-07-16 05:14:00,73.6,72.7,30.09,SW,225,0.0,0.0,97,0.00,,CLR,0.00,VWS V14.01,2013-07-16 09:14:00,
2013-07-16 05:19:00,73.6,72.7,30.09,SW,225,0.0,0.0,97,0.00,,CLR,0.00,VWS V14.01,2013-07-16 09:19:00,
2013-07-16 05:24:00,73.6,72.7,30.10,SW,225,0.0,0.0,97,0.00,,CLR,0.00,VWS V14.01,2013-07-16 09:24:00,
2013-07-16 05:30:00,73.6,72.7,30.10,SW,225,0.0,0.0,97,0.00,,CLR,0.00,VWS V14.01,2013-07-16 09:30:00,
2013-07-16 05:35:00,73.6,72.7,30.10,SW,225,0.0,0.0,97,0.00,,CLR,0.00,VWS V14.01,2013-07-16 09:35:00,
2013-07-16 05:40:00,73.6,72.7,30.10,SW,225,0.0,0.0,97,0.00,,CLR,0.00,VWS V14.01,2013-07-16 09:40:00,
2013-07-16 05:45:00,73.7,72.8,30.10,SW,225,0.0,0.0,97,0.00,,CLR,0.00,VWS V14.01,2013-07-16 09:45:00,
2013-07-16 05:50:00,73.6,72.7,30.10,SW,225,0.0,0.0,97,0.00,,CLR,0.00,VWS V14.01,2013-07-16 09:50:00,
2013-07-16 05:55:00,73.6,72.7,30.10,SW,225,0.0,0.0,97,0.00,,CLR,0.00,VWS V14.01,2013-07-16 09:55:00,
2013-07-16 06:00:00,73.6,72.7,30.10,SW,225,0.0,0.0,97,0.00,,CLR,0.00,VWS V14.01,2013-07-16 10:00:00,
2013-07-16 06:05:00,73.6,72.7,30.10,SW,225,0.0,0.0,97,0.00,,CLR,0.00,VWS V14.01,2013-07-16 10:05:00,
2013-07-16 06:11:00,73.6,72.7,30.10,SW,225,0.0,0.0,97,0.00,,CLR,0.00,VWS V14.01,2013-07-16 10:11:00,
2013-07-16 06:16:00,73.6,72.7,30.10,SW,225,0.0,0.0,97,0.00,,CLR,0.00,VWS V14.01,2013-07-16 10:16:00,
2013-07-16 06:21:00,73.6,72.7,30.10,SW,225,0.0,0.0,97,0.00,,CLR,0.00,VWS V14.01,2013-07-16 10:21:00,
2013-07-16 06:26:00,73.5,72.6,30.10,SW,225,0.0,0.0,97,0.00,,CLR,0.00,VWS V14.01,2013-07-16 10:26:00,
2013-07-16 06:31:00,73.6,72.7,30.10,SW,225,0.0,0.0,97,0.00,,CLR,0.00,VWS V14.01,2013-07-16 10:31:00,
2013-07-16 06:36:00,73.5,72.6,30.10,SW,225,0.0,0.0,97,0.00,,CLR,0.00,VWS V14.01,2013-07-16 10:36:00,
2013-07-16 06:41:00,73.3,72.4,30.10,SW,225,0.0,0.0,97,0.00,,CLR,0.00,VWS V14.01,2013-07-16 10:41:00,
2013-07-16 06:46:00,73.4,72.5,30.10,SW,225,0.0,0.0,97,0.00,,CLR,0.00,VWS V14.01,2013-07-16 10:46:00,
2013-07-16 06:52:00,73.5,72.6,30.10,SW,225,0.0,0.0,97,0.00,,CLR,0.00,VWS V14.01,2013-07-16 10:52:00,
2013-07-16 06:57:00,73.5,72.6,30.10,SW,225,0.0,0.0,97,0.00,,CLR,0.00,VWS V14.01,2013-07-16 10:57:00,
2013-07-16 07:02:00,73.5,72.6,30.10,SW,225,0.0,0.0,97,0.00,,CLR,0.00,VWS V14.01,2013-07-16 11:02:00,
2013-07-16 07:07:00,73.5,72.6,30.10,SW,225,0.0,0.0,97,0.00,,CLR,0.00,VWS V14.01,2013-07-16 11:07:00,
2013-07-16 07:12:00,73.6,72.7,30.11,SW,225,0.0,0.0,97,0.00,,CLR,0.00,VWS V14.01,2013-07-16 11:12:00,
2013-07-16 07:17:00,73.7,72.8,30.11,SW,225,0.0,0.0,97,0.00,,CLR,0.00,VWS V14.01,2013-07-16 11:17:00,
2013-07-16 07:22:00,73.8,73.2,30.11,SW,235,0.0,0.0,98,0.00,,CLR,0.00,VWS V14.01,2013-07-16 11:22:00,
2013-07-16 07:27:00,74.0,73.4,30.11,SW,235,0.0,0.0,98,0.00,,CLR,0.00,VWS V14.01,2013-07-16 11:27:00,
2013-07-16 07:32:00,74.2,73.6,30.11,SW,235,0.0,0.0,98,0.00,,CLR,0.00,VWS V14.01,2013-07-16 11:32:00,
2013-07-16 07:38:00,74.3,73.7,30.11,SW,235,0.0,0.0,98,0.00,,CLR,0.00,VWS V14.01,2013-07-16 11:38:00,
2013-07-16 07:43:00,74.5,73.9,30.11,SSW,208,0.0,0.0,98,0.00,,CLR,0.00,VWS V14.01,2013-07-16 11:43:00,
2013-07-16 07:48:00,74.7,74.1,30.11,SW,236,0.0,0.0,98,0.00,,CLR,0.00,VWS V14.01,2013-07-16 11:48:00,
2013-07-16 07:53:00,74.9,74.3,30.12,SW,236,0.0,0.0,98,0.00,,CLR,0.00,VWS V14.01,2013-07-16 11:53:00,
2013-07-16 07:58:00,75.1,74.2,30.12,SW,235,0.0,0.0,97,0.00,,CLR,0.00,VWS V14.01,2013-07-16 11:58:00,
2013-07-16 08:03:00,75.4,74.5,30.12,SSE,148,0.0,0.0,97,0.00,,CLR,0.00,VWS V14.01,2013-07-16 12:03:00,
2013-07-16 08:08:00,75.6,74.7,30.12,SSE,147,0.0,0.0,97,0.00,,CLR,0.00,VWS V14.01,2013-07-16 12:08:00,
2013-07-16 08:13:00,75.8,74.9,30.13,SSE,148,0.0,0.0,97,0.00,,CLR,0.00,VWS V14.01,2013-07-16 12:13:00,
2013-07-16 08:18:00,76.0,75.1,30.13,WSW,240,0.0,0.0,97,0.00,,CLR,0.00,VWS V14.01,2013-07-16 12:18:00,
2013-07-16 08:24:00,76.3,75.1,30.13,SW,228,0.0,0.0,96,0.00,,CLR,0.00,VWS V14.01,2013-07-16 12:24:00,
2013-07-16 08:29:00,76.7,75.2,30.13,South,179,0.0,0.0,95,0.00,,CLR,0.00,VWS V14.01,2013-07-16 12:29:00,
2013-07-16 08:34:00,77.2,75.3,30.13,SW,226,0.0,0.0,94,0.00,,CLR,0.00,VWS V14.01,2013-07-16 12:34:00,
2013-07-16 08:39:00,77.7,75.2,30.13,SSW,210,0.0,0.0,92,0.00,,CLR,0.00,VWS V14.01,2013-07-16 12:39:00,
2013-07-16 08:44:00,78.0,75.5,30.13,SW,224,0.0,0.0,92,0.00,,CLR,0.00,VWS V14.01,2013-07-16 12:44:00,
2013-07-16 08:49:00,78.4,75.6,30.13,West,264,0.0,0.0,91,0.00,,CLR,0.00,VWS V14.01,2013-07-16 12:49:00,
2013-07-16 08:54:00,78.8,75.6,30.13,West,266,0.0,0.0,90,0.00,,CLR,0.00,VWS V14.01,2013-07-16 12:54:00,
2013-07-16 08:59:00,79.1,75.6,30.13,ESE,119,0.0,0.0,89,0.00,,CLR,0.00,VWS V14.01,2013-07-16 12:59:00,
2013-07-16 09:05:00,79.4,75.5,30.13,WSW,240,0.0,0.0,88,0.00,,CLR,0.00,VWS V14.01,2013-07-16 13:05:00,
2013-07-16 09:10:00,79.6,75.4,30.13,WNW,290,0.0,1.0,87,0.00,,CLR,0.00,VWS V14.01,2013-07-16 13:10:00,
2013-07-16 09:15:00,80.0,75.4,30.14,SW,236,0.0,1.0,86,0.00,,CLR,0.00,VWS V14.01,2013-07-16 13:15:00,
2013-07-16 09:20:00,80.4,75.5,30.14,SSW,203,0.0,1.0,85,0.00,,CLR,0.00,VWS V14.01,2013-07-16 13:20:00,
2013-07-16 09:25:00,80.8,76.2,30.14,WSW,246,0.0,1.0,86,0.00,,CLR,0.00,VWS V14.01,2013-07-16 13:25:00,
2013-07-16 09:30:00,81.1,75.4,30.14,SSW,204,0.0,1.0,83,0.00,,CLR,0.00,VWS V14.01,2013-07-16 13:30:00,
2013-07-16 09:35:00,81.4,76.1,30.14,WSW,240,0.0,0.0,84,0.00,,CLR,0.00,VWS V14.01,2013-07-16 13:35:00,
2013-07-16 09:40:00,81.8,75.4,30.13,WSW,238,0.0,0.0,81,0.00,,CLR,0.00,VWS V14.01,2013-07-16 13:40:00,
2013-07-16 09:46:00,82.1,75.3,30.13,South,186,0.0,0.0,80,0.00,,CLR,0.00,VWS V14.01,2013-07-16 13:46:00,
2013-07-16 09:51:00,82.3,75.5,30.13,SW,221,0.0,0.0,80,0.00,,CLR,0.00,VWS V14.01,2013-07-16 13:51:00,
2013-07-16 09:56:00,82.8,75.6,30.13,SSE,162,0.0,0.0,79,0.00,,CLR,0.00,VWS V14.01,2013-07-16 13:56:00,
2013-07-16 10:01:00,83.2,75.6,30.14,SSW,208,0.0,0.0,78,0.00,,FEW028,0.00,VWS V14.01,2013-07-16 14:01:00,
2013-07-16 10:06:00,83.6,75.6,30.14,South,191,0.0,1.0,77,0.00,,FEW028,0.00,VWS V14.01,2013-07-16 14:06:00,
2013-07-16 10:11:00,83.7,75.3,30.14,SE,146,0.0,1.0,76,0.00,,FEW028,0.00,VWS V14.01,2013-07-16 14:11:00,
2013-07-16 10:16:00,83.8,75.4,30.14,WSW,237,0.0,1.0,76,0.00,,FEW028,0.00,VWS V14.01,2013-07-16 14:16:00,
2013-07-16 10:22:00,84.2,75.4,30.14,SSW,208,0.0,1.0,75,0.00,,FEW028,0.00,VWS V14.01,2013-07-16 14:22:00,
2013-07-16 10:27:00,84.5,75.3,30.14,SSE,167,0.0,1.0,74,0.00,,FEW028,0.00,VWS V14.01,2013-07-16 14:27:00,
2013-07-16 10:32:00,84.4,75.6,30.14,SSE,153,0.0,0.0,75,0.00,,FEW028,0.00,VWS V14.01,2013-07-16 14:32:00,
2013-07-16 10:37:00,84.4,76.4,30.14,SSW,207,0.0,0.0,77,0.00,,FEW028,0.00,VWS V14.01,2013-07-16 14:37:00,
2013-07-16 10:42:00,85.2,76.4,30.14,SW,215,0.0,0.0,75,0.00,,FEW028,0.00,VWS V14.01,2013-07-16 14:42:00,
2013-07-16 10:47:00,86.0,75.9,30.14,SW,226,0.0,0.0,72,0.00,,FEW028,0.00,VWS V14.01,2013-07-16 14:47:00,
2013-07-16 10:52:00,86.9,76.8,30.14,NNW,329,0.0,0.0,72,0.00,,FEW028,0.00,VWS V14.01,2013-07-16 14:52:00,
2013-07-16 10:57:00,87.0,76.9,30.14,SW,225,0.0,0.0,72,0.00,,FEW028,0.00,VWS V14.01,2013-07-16 14:57:00,
2013-07-16 11:02:00,86.5,76.4,30.14,SE,139,0.0,0.0,72,0.00,,FEW041,0.00,VWS V14.01,2013-07-16 15:02:00,
2013-07-16 11:08:00,85.8,75.7,30.15,SW,226,0.0,0.0,72,0.00,,FEW041,0.00,VWS V14.01,2013-07-16 15:08:00,
2013-07-16 11:13:00,83.5,76.3,30.16,SW,222,0.0,0.0,79,0.01,,FEW041,0.01,VWS V14.01,2013-07-16 15:13:00,
2013-07-16 11:18:00,81.6,77.4,30.15,SSW,212,0.0,0.0,87,0.02,,FEW041,0.02,VWS V14.01,2013-07-16 15:18:00,
2013-07-16 11:23:00,80.6,76.4,30.15,SSW,196,0.0,0.0,87,0.02,,FEW041,0.02,VWS V14.01,2013-07-16 15:23:00,
2013-07-16 11:28:00,80.8,76.9,30.15,SW,233,0.0,0.0,88,0.02,,FEW041,0.02,VWS V14.01,2013-07-16 15:28:00,
2013-07-16 11:33:00,81.6,77.7,30.15,SW,217,0.0,0.0,88,0.02,,FEW041,0.02,VWS V14.01,2013-07-16 15:33:00,
2013-07-16 11:38:00,82.6,78.0,30.15,South,190,0.0,0.0,86,0.02,,FEW041,0.02,VWS V14.01,2013-07-16 15:38:00,
2013-07-16 11:43:00,83.4,78.1,30.15,SSW,212,0.0,0.0,84,0.02,,FEW041,0.02,VWS V14.01,2013-07-16 15:43:00,
2013-07-16 11:48:00,84.3,78.9,30.15,SSW,210,0.0,0.0,84,0.02,,FEW041,0.02,VWS V14.01,2013-07-16 15:48:00,
2013-07-16 11:53:00,85.2,79.1,30.15,SSE,160,0.0,0.0,82,0.02,,FEW041,0.02,VWS V14.01,2013-07-16 15:53:00,
2013-07-16 11:59:00,85.7,79.6,30.15,SSW,203,0.0,0.0,82,0.02,,FEW041,0.02,VWS V14.01,2013-07-16 15:59:00,
2013-07-16 12:04:00,86.3,79.4,30.14,SW,228,0.0,0.0,80,0.02,,SCT046,0.02,VWS V14.01,2013-07-16 16:04:00,
2013-07-16 12:09:00,87.1,78.2,30.14,SW,215,0.0,0.0,75,0.02,,SCT046,0.02,VWS V14.01,2013-07-16 16:09:00,
2013-07-16 12:14:00,87.5,77.4,30.14,SSW,211,0.0,0.0,72,0.02,,SCT046,0.02,VWS V14.01,2013-07-16 16:14:00,
2013-07-16 12:19:00,88.1,78.4,30.14,East,96,0.0,0.0,73,0.02,,SCT046,0.02,VWS V14.01,2013-07-16 16:19:00,
2013-07-16 12:24:00,88.6,78.4,30.14,SW,221,0.0,0.0,72,0.02,,SCT046,0.02,VWS V14.01,2013-07-16 16:24:00,
2013-07-16 12:29:00,88.9,76.1,30.14,SSW,207,0.0,0.0,66,0.02,,SCT046,0.02,VWS V14.01,2013-07-16 16:29:00,
2013-07-16 12:34:00,88.8,76.0,30.14,South,186,0.0,0.0,66,0.00,,SCT046,0.02,VWS V14.01,2013-07-16 16:34:00,
2013-07-16 12:39:00,89.2,76.8,30.14,SSE,165,0.0,0.0,67,0.00,,SCT046,0.02,VWS V14.01,2013-07-16 16:39:00,
2013-07-16 12:44:00,89.5,76.2,30.14,South,169,0.0,0.0,65,0.00,,SCT046,0.02,VWS V14.01,2013-07-16 16:44:00,
2013-07-16 12:50:00,90.2,77.8,30.13,SE,129,0.0,0.0,67,0.00,,SCT046,0.02,VWS V14.01,2013-07-16 16:50:00,
2013-07-16 12:55:00,90.4,76.1,30.13,SSE,155,0.0,0.0,63,0.00,,SCT046,0.02,VWS V14.01,2013-07-16 16:55:00,